カタログに戻る

SITRO-AIS-25

運用中通信PO
NORAD 59066·PAYLOAD·🇷🇺 Russia
この衛星名は、まだ公式ソースで確認されていません。

打ち上げ Feb 29, 2024 から Vostochny Cosmodrome

Loading…

次のパス (今後24時間)

TLE

最新Source: Space-Track

元期: Sep 14, 2026, 20:57 UTC

1 59066U 24039R   26257.87350062  .00003164  00000-0  24422-3 0  9998
2 59066  95.3817 296.6977 0143846  15.1632 345.3837 14.94038091138117

AllMySatでSITRO-AIS-25をリアルタイム追跡

Download on the App Store